Location: Aalsum
(53.3404°N, 6.0062°E)
Time: 08:45:20
(UTC+00:00)

NOSS 3-3 (C) - Pass Details

Date: 28 January 2023
Orbit: 770 x 1441 km, 63.4° (Epoch: 23 February)

Event Time Altitude Azimuth Distance (km) Brightness Sun altitude
Rises 17:46:55 0° 239° (WSW) 3,387 8.3 -14.2°
Reaches altitude 10° 17:49:14 10° 243° (WSW) 2,518 7.4 -14.5°
Maximum altitude 17:55:03 66° 325° (NW) 1,057 4.3 -15.3°
Enters shadow 18:00:38 16° 46° (NE) 2,501 5.7 -16.2°
